FW8892 Weather Reports


Display with metric or nautical units.
time (UTC)temp
F
wind
direction
speed
MPH
gust
MPH
rain 1hr
in
rain 24hr
in
rain mn
in
humidity
%
barometer
mb
20260902203051 98 196 3.0 9.0 0.00 0.00 0.00 49 1017.2
20260902202528 98 148 3.0 9.0 0.00 0.00 0.00 49 1017.2
20260902202029 97 134 2.0 8.0 0.00 0.00 0.00 48 1017.3
20260902201549 97 168 4.0 8.0 0.00 0.00 0.00 49 1017.5
20260902201029 97 0 2.0 5.0 0.00 0.00 0.00 48 1017.5
20260902200530 97 186 1.0 5.0 0.00 0.00 0.00 50 1017.6
20260902200055 97 213 1.0 5.0 0.00 0.00 0.00 50 1017.7
20260902195529 97 0 1.0 5.0 0.00 0.00 0.00 48 1017.8
20260902195029 97 152 1.0 7.0 0.00 0.00 0.00 49 1017.9
20260902194555 97 199 3.0 8.0 0.00 0.00 0.00 49 1017.9
20260902194031 97 190 2.0 8.0 0.00 0.00 0.00 51 1017.9
20260902193529 97 159 2.0 5.0 0.00 0.00 0.00 51 1018.0
20260902193050 96 230 1.0 5.0 0.00 0.00 0.00 51 1018.1
20260902192529 96 100 2.0 5.0 0.00 0.00 0.00 48 1018.1
20260902192030 97 77 0.0 5.0 0.00 0.00 0.00 48 1018.2
20260902191602 97 0 1.0 8.0 0.00 0.00 0.00 49 1018.2
20260902191030 98 284 0.0 8.0 0.00 0.00 0.00 50 1018.3
20260902190528 98 94 3.0 6.0 0.00 0.00 0.00 48 1018.4
20260902190054 98 203 2.0 5.0 0.00 0.00 0.00 51 1018.4
20260902185529 97 323 2.0 9.0 0.00 0.00 0.00 48 1018.5
20260902185027 97 0 2.0 9.0 0.00 0.00 0.00 46 1018.5
20260902184618 97 277 4.0 9.0 0.00 0.00 0.00 49 1018.5
20260902184030 97 219 2.0 7.0 0.00 0.00 0.00 51 1018.6
20260902183530 98 90 2.0 7.0 0.00 0.00 0.00 48 1018.7
20260902183057 97 249 1.0 5.0 0.00 0.00 0.00 53 1018.6
20260902182528 97 142 2.0 6.0 0.00 0.00 0.00 49 1018.7
20260902182029 97 0 2.0 9.0 0.00 0.00 0.00 48 1018.8
20260902181550 97 132 3.0 12.0 0.00 0.00 0.00 52 1018.8
20260902181029 97 178 4.0 12.0 0.00 0.00 0.00 50 1018.8
20260902180529 97 203 3.0 7.0 0.00 0.00 0.00 52 1018.8
20260902180051 97 231 2.0 7.0 0.00 0.00 0.00 49 1018.9
20260902175532 97 287 1.0 7.0 0.00 0.00 0.00 50 1019.0
20260902175029 97 232 3.0 8.0 0.00 0.00 0.00 50 1019.0
20260902174603 98 128 3.0 8.0 0.00 0.00 0.00 50 1019.0
20260902174029 98 176 4.0 10.0 0.00 0.00 0.00 48 1019.0
20260902173529 97 285 2.0 10.0 0.00 0.00 0.00 51 1019.3
20260902173053 97 164 3.0 7.0 0.00 0.00 0.00 52 1019.2
20260902172530 97 186 2.0 6.0 0.00 0.00 0.00 52 1019.3
20260902172030 97 258 2.0 9.0 0.00 0.00 0.00 52 1019.2
20260902171605 97 280 3.0 9.0 0.00 0.00 0.00 53 1019.4
20260902171029 97 234 1.0 5.0 0.00 0.00 0.00 50 1019.3
20260902170528 97 265 2.0 8.0 0.00 0.00 0.00 50 1019.4
20260902165530 98 221 3.0 7.0 0.00 0.00 0.00 51 1019.5
20260902165030 98 217 2.0 8.0 0.00 0.00 0.00 53 1019.6
20260902164600 98 205 2.0 8.0 0.00 0.00 0.00 53 1019.7
20260902164027 97 277 2.0 10.0 0.00 0.00 0.00 52 1019.7
20260902163529 97 196 3.0 11.0 0.00 0.00 0.00 53 1019.8
20260902163057 97 184 4.0 11.0 0.00 0.00 0.00 52 1019.9
20260902162529 97 146 2.0 7.0 0.00 0.00 0.00 53 1019.9
20260902162031 97 156 4.0 7.0 0.00 0.00 0.00 50 1019.8
20260902161549 97 219 3.0 7.0 0.00 0.00 0.00 52 1020.0
20260902161031 97 254 1.0 7.0 0.00 0.00 0.00 52 1019.9
20260902160530 97 284 1.0 7.0 0.00 0.00 0.00 52 1020.0
20260902160055 97 192 2.0 7.0 0.00 0.00 0.00 52 1020.1
20260902155529 97 223 2.0 6.0 0.00 0.00 0.00 52 1020.1
20260902155030 97 213 2.0 6.0 0.00 0.00 0.00 55 1020.1
20260902154555 97 211 1.0 4.0 0.00 0.00 0.00 53 1020.1
20260902154029 96 201 0.0 6.0 0.00 0.00 0.00 54 1020.1
20260902153530 96 223 1.0 6.0 0.00 0.00 0.00 54 1020.1
20260902153048 96 161 0.0 5.0 0.00 0.00 0.00 55 1020.1
20260902152534 95 144 1.0 5.0 0.00 0.00 0.00 56 1020.1
20260902152029 95 303 1.0 5.0 0.00 0.00 0.00 56 1020.0
20260902151556 94 0 1.0 6.0 0.00 0.00 0.00 59 1020.1
20260902151029 94 242 3.0 6.0 0.00 0.00 0.00 58 1020.1
20260902150528 94 128 1.0 5.0 0.00 0.00 0.00 58 1020.0
20260902150044 94 116 2.0 5.0 0.00 0.00 0.00 58 1020.0
20260902145530 93 134 1.0 3.0 0.00 0.00 0.00 61 1020.0
20260902145033 93 97 1.0 4.0 0.00 0.00 0.00 61 1020.0
20260902144554 93 223 1.0 4.0 0.00 0.00 0.00 60 1020.0
20260902144030 92 0 1.0 4.0 0.00 0.00 0.00 62 1020.1
20260902143528 92 128 2.0 4.0 0.00 0.00 0.00 62 1020.1
20260902143056 91 0 1.0 5.0 0.00 0.00 0.00 63 1020.0
20260902142531 91 89 1.0 5.0 0.00 0.00 0.00 63 1020.1
20260902142029 91 0 0.0 4.0 0.00 0.00 0.00 64 1020.0
20260902141554 91 0 1.0 4.0 0.00 0.00 0.00 63 1019.9
20260902141032 90 183 1.0 3.0 0.00 0.00 0.00 65 1019.9
20260902140529 90 116 0.0 3.0 0.00 0.00 0.00 64 1019.8
20260902140057 89 124 0.0 2.0 0.00 0.00 0.00 65 1019.9
20260902135533 89 165 0.0 2.0 0.00 0.00 0.00 69 1019.9
20260902135029 88 0 0.0 3.0 0.00 0.00 0.00 69 1019.9
20260902134605 88 0 1.0 3.0 0.00 0.00 0.00 70 1019.9
20260902134026 88 184 0.0 3.0 0.00 0.00 0.00 71 1020.0
20260902133529 87 0 0.0 2.0 0.00 0.00 0.00 72 1019.9
20260902133046 86 140 0.0 2.0 0.00 0.00 0.00 74 1020.0
20260902132529 85 142 0.0 2.0 0.00 0.00 0.00 75 1019.9
20260902132028 85 135 0.0 1.0 0.00 0.00 0.00 76 1020.0
20260902131557 84 225 0.0 1.0 0.00 0.00 0.00 78 1020.1
20260902131031 83 0 0.0 0.0 0.00 0.00 0.00 80 1020.0
20260902130529 82 0 0.0 1.0 0.00 0.00 0.00 81 1019.9
20260902130059 81 0 0.0 1.0 0.00 0.00 0.00 83 1019.9
20260902125530 80 0 0.0 0.0 0.00 0.00 0.00 86 1019.8
20260902125029 78 0 0.0 0.0 0.00 0.00 0.00 89 1019.8
20260902124556 77 0 0.0 0.0 0.00 0.00 0.00 88 1019.8
20260902124028 76 0 0.0 0.0 0.00 0.00 0.00 93 1019.8
20260902123528 75 0 0.0 0.0 0.00 0.00 0.00 95 1019.8
20260902123048 74 0 0.0 0.0 0.00 0.00 0.00 96 1019.7
20260902122529 73 0 0.0 0.0 0.00 0.00 0.00 97 1019.8
20260902122028 72 0 0.0 0.0 0.00 0.00 0.00 98 1019.7
20260902121601 72 0 0.0 0.0 0.00 0.00 0.00 98 1019.7
20260902121029 71 0 0.0 0.0 0.00 0.00 0.00 98 1019.7
20260902120531 71 0 0.0 0.0 0.00 0.00 0.00 98 1019.7
20260902120056 70 0 0.0 0.0 0.00 0.00 0.00 98 1019.7
20260902115529 70 0 0.0 0.0 0.00 0.00 0.00 97 1019.7
20260902115032 69 0 0.0 0.0 0.00 0.00 0.00 97 1019.6
20260902114557 69 0 0.0 0.0 0.00 0.00 0.00 97 1019.5
20260902114028 69 0 0.0 0.0 0.00 0.00 0.00 97 1019.6
20260902113530 69 0 0.0 0.0 0.00 0.00 0.00 97 1019.4
20260902113047 69 0 0.0 0.0 0.00 0.00 0.00 97 1019.4
20260902112529 69 0 0.0 0.0 0.00 0.00 0.00 97 1019.4
20260902112029 69 0 0.0 0.0 0.00 0.00 0.00 97 1019.2
20260902111547 69 0 0.0 0.0 0.00 0.00 0.00 97 1019.2
20260902111029 70 0 0.0 0.0 0.00 0.00 0.00 97 1019.1
20260902110530 69 0 0.0 0.0 0.00 0.00 0.00 97 1019.0
20260902110046 70 0 0.0 0.0 0.00 0.00 0.00 97 1019.0
20260902105528 70 0 0.0 0.0 0.00 0.00 0.00 97 1018.9
20260902105028 70 0 0.0 0.0 0.00 0.00 0.00 97 1018.9
20260902104556 70 0 0.0 0.0 0.00 0.00 0.00 96 1018.9
20260902104028 70 0 0.0 0.0 0.00 0.00 0.00 96 1018.8
20260902103528 70 0 0.0 0.0 0.00 0.00 0.00 96 1018.8
20260902103053 70 0 0.0 0.0 0.00 0.00 0.00 97 1018.6
20260902102527 70 0 0.0 0.0 0.00 0.00 0.00 97 1018.7
20260902102029 70 0 0.0 0.0 0.00 0.00 0.00 97 1018.7
20260902101546 70 0 0.0 0.0 0.00 0.00 0.00 97 1018.7
20260902101028 70 0 0.0 0.0 0.00 0.00 0.00 97 1018.7
20260902100527 70 0 0.0 0.0 0.00 0.00 0.00 97 1018.6
20260902100107 70 0 0.0 0.0 0.00 0.00 0.00 96 1018.6
20260902095530 70 0 0.0 0.0 0.00 0.00 0.00 96 1018.5
20260902095028 70 0 0.0 0.0 0.00 0.00 0.00 96 1018.5
20260902094549 70 0 0.0 0.0 0.00 0.00 0.00 96 1018.5
20260902094028 70 0 0.0 0.0 0.00 0.00 0.00 96 1018.5
20260902093529 70 0 0.0 0.0 0.00 0.00 0.00 96 1018.5
20260902093046 70 0 0.0 0.0 0.00 0.00 0.00 96 1018.4
20260902092528 70 0 0.0 0.0 0.00 0.00 0.00 96 1018.5
20260902092029 70 0 0.0 0.0 0.00 0.00 0.00 96 1018.5
20260902091607 70 0 0.0 0.0 0.00 0.00 0.00 96 1018.3
20260902091030 70 0 0.0 0.0 0.00 0.00 0.00 96 1018.2
20260902090531 70 0 0.0 0.0 0.00 0.00 0.00 96 1018.3
20260902090048 70 0 0.0 0.0 0.00 0.00 0.00 95 1018.3
20260902085530 70 0 0.0 0.0 0.00 0.00 0.00 95 1018.2
20260902085028 71 0 0.0 0.0 0.00 0.00 0.00 95 1018.1
20260902084601 71 0 0.0 0.0 0.00 0.00 0.00 95 1018.0
20260902084029 71 0 0.0 0.0 0.00 0.00 0.00 95 1018.2
20260902083528 71 0 0.0 0.0 0.00 0.00 0.00 96 1018.1
20260902083052 71 0 0.0 0.0 0.00 0.00 0.00 95 1018.0
20260902082531 71 0 0.0 0.0 0.00 0.00 0.00 96 1017.9
20260902082032 71 0 0.0 0.0 0.00 0.00 0.00 96 1018.0
20260902081551 71 0 0.0 0.0 0.00 0.00 0.00 95 1017.9
20260902081030 71 0 0.0 0.0 0.00 0.00 0.00 96 1018.0
20260902080530 71 0 0.0 0.0 0.00 0.00 0.00 96 1017.9
20260902080112 71 0 0.0 0.0 0.00 0.00 0.00 96 1017.9
20260902075528 71 0 0.0 0.0 0.00 0.00 0.00 96 1017.9
20260902075029 71 0 0.0 0.0 0.00 0.00 0.00 95 1017.9
20260902074609 71 0 0.0 0.0 0.00 0.00 0.00 96 1017.9
20260902074030 71 0 0.0 0.0 0.00 0.00 0.00 95 1017.9
20260902073530 71 0 0.0 0.0 0.00 0.00 0.00 95 1017.9
20260902073103 72 0 0.0 0.0 0.00 0.00 0.00 95 1017.7
20260902072530 72 0 0.0 0.0 0.00 0.00 0.00 95 1017.8
20260902072028 72 0 0.0 0.0 0.00 0.00 0.00 95 1017.9
20260902071603 72 0 0.0 0.0 0.00 0.00 0.00 95 1017.8
20260902071030 72 0 0.0 0.0 0.00 0.00 0.00 95 1017.8
20260902070529 72 0 0.0 0.0 0.00 0.00 0.00 95 1017.8
20260902065529 72 0 0.0 0.0 0.00 0.00 0.00 95 1017.9
20260902065029 72 0 0.0 0.0 0.00 0.00 0.00 95 1017.9
20260902064603 72 0 0.0 0.0 0.00 0.00 0.00 95 1017.9
20260902064030 72 0 0.0 0.0 0.00 0.00 0.00 94 1017.8
20260902063528 72 0 0.0 0.0 0.00 0.00 0.00 94 1017.8
20260902063051 73 0 0.0 0.0 0.00 0.00 0.00 94 1017.9
20260902062530 73 0 0.0 0.0 0.00 0.00 0.00 94 1017.9
20260902062029 73 0 0.0 0.0 0.00 0.00 0.00 94 1018.0
20260902061601 73 0 0.0 0.0 0.00 0.00 0.00 94 1018.0
20260902061029 73 0 0.0 0.0 0.00 0.00 0.00 94 1018.0
20260902060528 73 0 0.0 0.0 0.00 0.00 0.00 94 1017.9
20260902055529 73 0 0.0 0.0 0.00 0.00 0.00 93 1018.1
20260902055029 73 0 0.0 0.0 0.00 0.00 0.00 94 1018.0
20260902054558 73 0 0.0 0.0 0.00 0.00 0.00 93 1018.0
20260902054029 73 0 0.0 0.0 0.00 0.00 0.00 93 1018.2
20260902053527 73 0 0.0 0.0 0.00 0.00 0.00 93 1018.1
20260902053056 73 0 0.0 0.0 0.00 0.00 0.00 93 1018.0
20260902052528 73 0 0.0 0.0 0.00 0.00 0.00 93 1018.0
20260902052028 73 0 0.0 1.0 0.00 0.00 0.00 93 1017.9
20260902051548 73 0 0.0 1.0 0.00 0.00 0.00 92 1017.9
20260902051028 74 0 0.0 1.0 0.00 0.00 0.00 92 1017.9
20260902050529 74 0 0.0 0.0 0.00 0.00 0.00 92 1018.0
20260902050112 74 0 0.0 1.0 0.00 0.00 0.00 92 1018.0
20260902045528 74 0 0.0 1.0 0.00 0.00 0.00 92 1017.7
20260902045029 74 0 0.0 1.0 0.00 0.00 0.00 91 1017.9
20260902044559 74 0 0.0 1.0 0.00 0.00 0.00 91 1018.0
20260902044031 74 0 0.0 1.0 0.00 0.00 0.00 92 1017.8
20260902043528 74 0 0.0 1.0 0.00 0.00 0.00 91 1017.9
20260902043056 74 0 0.0 0.0 0.00 0.00 0.00 91 1017.9
20260902042528 74 0 0.0 1.0 0.00 0.00 0.00 91 1017.9
20260902042030 74 0 0.0 1.0 0.00 0.00 0.00 91 1018.0
20260902041550 74 0 0.0 1.0 0.00 0.00 0.00 90 1018.0
20260902041028 75 0 0.0 0.0 0.00 0.00 0.00 90 1018.0
20260902040528 75 0 0.0 0.0 0.00 0.00 0.00 90 1018.0
20260902040049 75 0 0.0 0.0 0.00 0.00 0.00 90 1017.9
20260902035531 75 0 0.0 0.0 0.00 0.00 0.00 88 1018.0
20260902035028 75 0 0.0 0.0 0.00 0.00 0.00 89 1018.0
20260902034546 75 0 0.0 0.0 0.00 0.00 0.00 89 1017.9
20260902034029 75 0 0.0 0.0 0.00 0.00 0.00 89 1018.0
20260902033529 75 0 0.0 0.0 0.00 0.00 0.00 88 1018.0
20260902033056 75 0 0.0 0.0 0.00 0.00 0.00 88 1018.0
20260902032529 76 0 0.0 0.0 0.00 0.00 0.00 88 1018.1
20260902032032 76 0 0.0 0.0 0.00 0.00 0.00 88 1018.1
20260902031551 76 0 0.0 0.0 0.00 0.00 0.00 88 1018.1
20260902031029 76 0 0.0 0.0 0.00 0.00 0.00 87 1018.2
20260902030529 76 0 0.0 0.0 0.00 0.00 0.00 87 1018.2
20260902030045 76 0 0.0 0.0 0.00 0.00 0.00 87 1018.2
20260902025530 76 0 0.0 0.0 0.00 0.00 0.00 86 1018.2
20260902025029 76 0 0.0 0.0 0.00 0.00 0.00 87 1018.2
20260902024555 77 0 0.0 0.0 0.00 0.00 0.00 87 1018.3
20260902024031 77 0 0.0 0.0 0.00 0.00 0.00 85 1018.1
20260902023529 77 0 0.0 0.0 0.00 0.00 0.00 84 1018.2
20260902023051 77 0 0.0 0.0 0.00 0.00 0.00 84 1018.1
20260902022527 77 0 0.0 0.0 0.00 0.00 0.00 84 1018.1
20260902022030 77 0 0.0 0.0 0.00 0.00 0.00 84 1018.1
20260902021551 77 0 0.0 0.0 0.00 0.00 0.00 83 1018.1
20260902021029 78 0 0.0 0.0 0.00 0.00 0.00 82 1018.1
20260902020528 78 0 0.0 0.0 0.00 0.00 0.00 82 1018.0
20260902020054 78 0 0.0 0.0 0.00 0.00 0.00 82 1017.9
20260902015530 78 0 0.0 0.0 0.00 0.00 0.00 81 1017.8
20260902015029 79 0 0.0 0.0 0.00 0.00 0.00 81 1017.9
20260902014557 79 0 0.0 0.0 0.00 0.00 0.00 81 1017.8
20260902014030 79 0 0.0 0.0 0.00 0.00 0.00 81 1017.9
20260902013529 79 0 0.0 0.0 0.00 0.00 0.00 81 1017.7
20260902013051 80 0 0.0 0.0 0.00 0.00 0.00 81 1017.8
20260902012529 80 0 0.0 0.0 0.00 0.00 0.00 80 1017.7
20260902012032 80 0 0.0 0.0 0.00 0.00 0.00 79 1017.7
20260902011556 81 0 0.0 0.0 0.00 0.00 0.00 79 1017.6
20260902011028 81 0 0.0 0.0 0.00 0.00 0.00 78 1017.6
20260902010529 81 0 0.0 0.0 0.00 0.00 0.00 78 1017.4
20260902010109 82 0 0.0 0.0 0.00 0.00 0.00 76 1017.5
20260902005529 82 0 0.0 0.0 0.00 0.00 0.00 76 1017.5
20260902005027 82 0 0.0 0.0 0.00 0.00 0.00 75 1017.4
20260902004601 83 0 0.0 0.0 0.00 0.00 0.00 74 1017.5
20260902004028 83 0 0.0 0.0 0.00 0.00 0.00 73 1017.5
20260902003530 84 0 0.0 0.0 0.00 0.00 0.00 72 1017.5
20260902003051 85 0 0.0 0.0 0.00 0.00 0.00 71 1017.5
20260902002528 85 0 0.0 0.0 0.00 0.00 0.00 71 1017.5
20260902002028 86 0 0.0 0.0 0.00 0.00 0.00 70 1017.5
20260902001556 86 0 0.0 0.0 0.00 0.00 0.00 69 1017.6
20260902001029 87 0 0.0 0.0 0.00 0.00 0.00 67 1017.5
20260902000527 88 0 0.0 0.0 0.00 0.00 0.00 67 1017.6
20260902000055 88 0 0.0 0.0 0.00 0.00 0.00 65 1017.4
20260901235529 89 0 0.0 0.0 0.00 0.00 0.00 64 1017.4
20260901235027 89 0 0.0 0.0 0.00 0.00 0.00 62 1017.4
20260901234555 90 0 0.0 1.0 0.00 0.00 0.00 61 1017.5
20260901234027 90 0 0.0 1.0 0.00 0.00 0.00 59 1017.4
20260901233528 90 0 0.0 1.0 0.00 0.00 0.00 57 1017.5
20260901233101 91 0 0.0 1.0 0.00 0.00 0.00 57 1017.5
20260901232531 91 0 0.0 1.0 0.00 0.00 0.00 57 1017.5
20260901232032 92 0 0.0 3.0 0.00 0.00 0.00 56 1017.7
20260901231554 92 0 0.0 3.0 0.00 0.00 0.00 53 1017.5
20260901231029 92 0 0.0 4.0 0.00 0.00 0.00 52 1017.7
20260901230528 92 0 0.0 4.0 0.00 0.00 0.00 53 1017.5
20260901230058 92 215 0.0 3.0 0.00 0.00 0.00 52 1017.6
20260901225530 92 0 0.0 2.0 0.00 0.00 0.00 53 1017.5
20260901225027 92 0 0.0 2.0 0.00 0.00 0.00 51 1017.4
20260901224552 93 0 0.0 3.0 0.00 0.00 0.00 50 1017.6
20260901224029 93 118 0.0 3.0 0.00 0.00 0.00 49 1017.5
20260901223529 93 165 0.0 3.0 0.00 0.00 0.00 50 1017.5
20260901223058 93 0 0.0 3.0 0.00 0.00 0.00 49 1017.5
20260901222527 93 119 0.0 3.0 0.00 0.00 0.00 49 1017.5
20260901222028 94 216 1.0 4.0 0.00 0.00 0.00 49 1017.5
20260901221617 94 0 0.0 5.0 0.00 0.00 0.00 49 1017.5
20260901221029 94 195 1.0 5.0 0.00 0.00 0.00 50 1017.5
20260901220533 94 0 0.0 4.0 0.00 0.00 0.00 51 1017.6
20260901220058 94 138 1.0 6.0 0.00 0.00 0.00 50 1017.5
20260901215528 94 190 1.0 6.0 0.00 0.00 0.00 51 1017.5
20260901215031 95 169 0.0 6.0 0.00 0.00 0.00 51 1017.5
20260901214548 95 0 1.0 6.0 0.00 0.00 0.00 49 1017.4
20260901214028 95 111 2.0 6.0 0.00 0.00 0.00 49 1017.4
20260901213529 96 59 1.0 5.0 0.00 0.00 0.00 49 1017.5
20260901213100 96 187 2.0 5.0 0.00 0.00 0.00 49 1017.5
20260901212529 97 139 0.0 4.0 0.00 0.00 0.00 48 1017.5
20260901212029 97 0 0.0 4.0 0.00 0.00 0.00 49 1017.5
20260901211547 97 113 0.0 6.0 0.00 0.00 0.00 49 1017.5
20260901211028 98 184 2.0 6.0 0.00 0.00 0.00 48 1017.5
20260901210530 98 150 1.0 4.0 0.00 0.00 0.00 48 1017.5
20260901210055 98 0 0.0 4.0 0.00 0.00 0.00 49 1017.7
20260901205529 98 82 0.0 2.0 0.00 0.00 0.00 49 1017.7
20260901205031 98 0 0.0 3.0 0.00 0.00 0.00 49 1017.7
20260901204557 98 0 0.0 3.0 0.00 0.00 0.00 48 1017.8
20260901204030 98 0 0.0 3.0 0.00 0.00 0.00 50 1017.8
20260901203530 98 202 0.0 4.0 0.00 0.00 0.00 49 1017.8